Terminal Aerodrome Forecast
Issued by NWS

Home | Current Version | Previous Version | Text Only | Print | Product List | Glossary Off
Versions: 1 2 3 4 5 6 7 8 9 10 11 12 13 14 15 16 17 18 19 20 21 22 23 24 25 26 27 28 29 30 31 32 33 34 35 36

651
FTUS43 KGRB 222332
TAFATW
TAF
KATW 222332Z 2300/2324 24005KT 6SM -SHRA SCT025 OVC060
      TEMPO 2300/2303 3SM TSRA BKN025CB
     FM230300 34004KT P6SM -SHRA OVC050
     FM230900 29006KT P6SM SCT090
     FM231500 28013G22KT P6SM SCT045=

USA.gov is the U.S. government's official web portal to all federal, state and local government web resources and services.